Time,TemperatureF,DewpointF,PressureIn,WindDirection,WindDirectionDegrees,WindSpeedMPH,WindSpeedGustMPH,Humidity,HourlyPrecipIn,Conditions,Clouds,dailyrainin,SoftwareType,DateUTC
2013-09-20 00:13:00,61.2,60.0,29.83,WNW,290,2.0,9.0,95,0.00,,,0.00,weatherlink.com 1.10,2013-09-20 05:13:00,
2013-09-20 00:28:00,60.7,59.0,29.85,NW,309,5.0,15.0,95,0.00,,,0.00,weatherlink.com 1.10,2013-09-20 05:28:00,
2013-09-20 00:43:00,60.4,59.0,29.85,WNW,290,4.0,11.0,95,0.00,,,0.00,weatherlink.com 1.10,2013-09-20 05:43:00,
2013-09-20 00:58:00,60.2,58.0,29.86,WNW,290,6.0,13.0,93,0.00,,,0.00,weatherlink.com 1.10,2013-09-20 05:58:00,
2013-09-20 01:13:00,60.1,58.0,29.87,NW,304,8.0,11.0,92,0.00,,,0.00,weatherlink.com 1.10,2013-09-20 06:13:00,
2013-09-20 01:28:00,60.2,57.0,29.87,NW,313,4.0,12.0,89,0.00,,,0.00,weatherlink.com 1.10,2013-09-20 06:28:00,
2013-09-20 01:43:00,60.1,56.0,29.88,WNW,292,3.0,17.0,86,0.00,,,0.00,weatherlink.com 1.10,2013-09-20 06:43:00,
2013-09-20 01:58:00,60.1,56.0,29.89,WNW,295,0.0,12.0,85,0.00,,,0.00,weatherlink.com 1.10,2013-09-20 06:58:00,
2013-09-20 02:13:00,60.0,56.0,29.89,NW,304,2.0,14.0,85,0.00,,,0.00,weatherlink.com 1.10,2013-09-20 07:13:00,
2013-09-20 02:28:00,59.9,55.0,29.89,WNW,289,1.0,12.0,84,0.00,,,0.00,weatherlink.com 1.10,2013-09-20 07:28:00,
2013-09-20 02:43:00,59.7,55.0,29.89,WNW,303,0.0,12.0,84,0.00,,,0.00,weatherlink.com 1.10,2013-09-20 07:43:00,
2013-09-20 02:58:00,59.6,55.0,29.89,WNW,296,0.0,9.0,84,0.00,,,0.00,weatherlink.com 1.10,2013-09-20 07:58:00,
2013-09-20 03:13:00,59.6,55.0,29.89,WNW,301,3.0,9.0,84,0.00,,,0.00,weatherlink.com 1.10,2013-09-20 08:13:00,
2013-09-20 03:28:00,59.4,55.0,29.88,WNW,297,1.0,17.0,84,0.00,,,0.00,weatherlink.com 1.10,2013-09-20 08:28:00,
2013-09-20 03:44:00,59.1,54.0,29.88,WNW,296,5.0,11.0,84,0.00,,,0.00,weatherlink.com 1.10,2013-09-20 08:44:00,
2013-09-20 03:59:00,58.9,54.0,29.88,WNW,286,14.0,14.0,84,0.00,,,0.00,weatherlink.com 1.10,2013-09-20 08:59:00,
2013-09-20 04:14:00,58.7,54.0,29.88,WNW,300,0.0,12.0,84,0.00,,,0.00,weatherlink.com 1.10,2013-09-20 09:14:00,
2013-09-20 04:29:00,58.3,54.0,29.89,NW,309,9.0,18.0,84,0.00,,,0.00,weatherlink.com 1.10,2013-09-20 09:29:00,
2013-09-20 04:44:00,57.8,53.0,29.89,NW,304,0.0,11.0,84,0.00,,,0.00,weatherlink.com 1.10,2013-09-20 09:44:00,
2013-09-20 04:59:00,57.5,53.0,29.89,WNW,292,5.0,10.0,85,0.00,,,0.00,weatherlink.com 1.10,2013-09-20 09:59:00,
2013-09-20 05:14:00,57.0,53.0,29.90,WNW,291,6.0,9.0,85,0.00,,,0.00,weatherlink.com 1.10,2013-09-20 10:14:00,
2013-09-20 05:29:00,56.5,52.0,29.90,WNW,296,0.0,12.0,86,0.00,,,0.00,weatherlink.com 1.10,2013-09-20 10:29:00,
2013-09-20 05:44:00,56.1,52.0,29.91,WNW,286,0.0,13.0,86,0.00,,,0.00,weatherlink.com 1.10,2013-09-20 10:44:00,
2013-09-20 05:59:00,55.7,52.0,29.91,West,281,4.0,13.0,86,0.00,,,0.00,weatherlink.com 1.10,2013-09-20 10:59:00,
2013-09-20 06:14:00,55.3,51.0,29.92,West,279,0.0,15.0,86,0.00,,,0.00,weatherlink.com 1.10,2013-09-20 11:14:00,
2013-09-20 06:29:00,55.0,51.0,29.93,WNW,284,7.0,10.0,86,0.00,,,0.00,weatherlink.com 1.10,2013-09-20 11:29:00,
2013-09-20 06:44:00,54.6,51.0,29.93,WNW,283,3.0,8.0,86,0.00,,,0.00,weatherlink.com 1.10,2013-09-20 11:44:00,
2013-09-20 06:59:00,54.2,50.0,29.94,WNW,290,0.0,12.0,86,0.00,,,0.00,weatherlink.com 1.10,2013-09-20 11:59:00,
2013-09-20 07:14:00,53.8,50.0,29.94,West,277,0.0,13.0,86,0.00,,,0.00,weatherlink.com 1.10,2013-09-20 12:14:00,
2013-09-20 07:29:00,53.5,50.0,29.94,WNW,282,0.0,9.0,87,0.00,,,0.00,weatherlink.com 1.10,2013-09-20 12:29:00,
2013-09-20 07:44:00,53.2,50.0,29.95,WNW,284,1.0,11.0,87,0.00,,,0.00,weatherlink.com 1.10,2013-09-20 12:44:00,
2013-09-20 07:59:00,53.1,49.0,29.95,West,275,0.0,18.0,87,0.00,,,0.00,weatherlink.com 1.10,2013-09-20 12:59:00,
2013-09-20 08:14:00,53.1,49.0,29.95,WNW,284,0.0,11.0,87,0.00,,,0.00,weatherlink.com 1.10,2013-09-20 13:14:00,
2013-09-20 08:29:00,54.2,51.0,29.96,WNW,290,4.0,16.0,87,0.00,,,0.00,weatherlink.com 1.10,2013-09-20 13:29:00,
2013-09-20 08:44:00,55.9,51.0,29.96,NW,306,2.0,15.0,83,0.00,,,0.00,weatherlink.com 1.10,2013-09-20 13:44:00,
2013-09-20 08:59:00,56.6,51.0,29.96,WNW,289,0.0,16.0,81,0.00,,,0.00,weatherlink.com 1.10,2013-09-20 13:59:00,
2013-09-20 09:14:00,57.0,51.0,29.96,West,275,2.0,15.0,79,0.00,,,0.00,weatherlink.com 1.10,2013-09-20 14:14:00,
2013-09-20 09:29:00,57.3,51.0,29.97,West,278,2.0,15.0,80,0.00,,,0.00,weatherlink.com 1.10,2013-09-20 14:29:00,
2013-09-20 09:44:00,58.7,52.0,29.96,WNW,289,4.0,17.0,78,0.00,,,0.00,weatherlink.com 1.10,2013-09-20 14:44:00,
2013-09-20 09:59:00,59.8,52.0,29.96,West,277,7.0,20.0,74,0.00,,,0.00,weatherlink.com 1.10,2013-09-20 14:59:00,
2013-09-20 10:14:00,60.2,51.0,29.96,WNW,296,4.0,20.0,72,0.00,,,0.00,weatherlink.com 1.10,2013-09-20 15:14:00,
2013-09-20 10:29:00,61.1,51.0,29.96,West,266,16.0,19.0,70,0.00,,,0.00,weatherlink.com 1.10,2013-09-20 15:29:00,
2013-09-20 10:45:00,60.8,51.0,29.96,West,280,5.0,22.0,70,0.00,,,0.00,weatherlink.com 1.10,2013-09-20 15:45:00,
2013-09-20 11:00:00,61.1,51.0,29.96,WSW,256,2.0,21.0,69,0.00,,,0.00,weatherlink.com 1.10,2013-09-20 16:00:00,
2013-09-20 11:15:00,62.2,50.0,29.96,WNW,282,17.0,24.0,65,0.00,,,0.00,weatherlink.com 1.10,2013-09-20 16:15:00,
2013-09-20 11:30:00,62.8,51.0,29.96,WNW,297,1.0,16.0,65,0.00,,,0.00,weatherlink.com 1.10,2013-09-20 16:30:00,
2013-09-20 11:45:00,63.4,51.0,29.95,WNW,291,4.0,23.0,65,0.00,,,0.00,weatherlink.com 1.10,2013-09-20 16:45:00,
2013-09-20 12:00:00,63.4,51.0,29.95,West,265,4.0,23.0,64,0.00,,,0.00,weatherlink.com 1.10,2013-09-20 17:00:00,
2013-09-20 12:15:00,64.2,51.0,29.95,WNW,297,5.0,21.0,63,0.00,,,0.00,weatherlink.com 1.10,2013-09-20 17:15:00,
2013-09-20 12:30:00,64.8,51.0,29.95,WNW,302,0.0,19.0,62,0.00,,,0.00,weatherlink.com 1.10,2013-09-20 17:30:00,
2013-09-20 12:45:00,65.3,51.0,29.94,WNW,291,11.0,20.0,61,0.00,,,0.00,weatherlink.com 1.10,2013-09-20 17:45:00,
2013-09-20 13:00:00,65.5,52.0,29.94,NW,306,0.0,20.0,63,0.00,,,0.00,weatherlink.com 1.10,2013-09-20 18:00:00,
2013-09-20 13:15:00,66.0,53.0,29.94,West,265,4.0,19.0,63,0.00,,,0.00,weatherlink.com 1.10,2013-09-20 18:15:00,
2013-09-20 13:30:00,65.8,53.0,29.94,WNW,302,9.0,24.0,63,0.00,,,0.00,weatherlink.com 1.10,2013-09-20 18:30:00,
2013-09-20 13:45:00,66.3,54.0,29.93,WNW,298,1.0,22.0,64,0.00,,,0.00,weatherlink.com 1.10,2013-09-20 18:45:00,
2013-09-20 14:00:00,65.8,53.0,29.93,WNW,286,7.0,19.0,63,0.00,,,0.00,weatherlink.com 1.10,2013-09-20 19:00:00,
2013-09-20 14:15:00,66.9,52.0,29.93,WNW,284,7.0,20.0,60,0.00,,,0.00,weatherlink.com 1.10,2013-09-20 19:15:00,
2013-09-20 14:30:00,66.8,54.0,29.92,WNW,289,0.0,17.0,63,0.00,,,0.00,weatherlink.com 1.10,2013-09-20 19:30:00,
2013-09-20 14:45:00,68.1,53.0,29.92,WNW,283,1.0,19.0,58,0.00,,,0.00,weatherlink.com 1.10,2013-09-20 19:45:00,
2013-09-20 15:00:00,68.1,54.0,29.92,West,279,8.0,21.0,62,0.00,,,0.00,weatherlink.com 1.10,2013-09-20 20:00:00,
2013-09-20 15:15:00,67.4,54.0,29.92,NW,321,4.0,13.0,62,0.00,,,0.00,weatherlink.com 1.10,2013-09-20 20:15:00,
2013-09-20 15:30:00,68.2,54.0,29.92,West,278,2.0,15.0,61,0.00,,,0.00,weatherlink.com 1.10,2013-09-20 20:30:00,
2013-09-20 15:45:00,67.8,52.0,29.91,NW,306,3.0,14.0,58,0.00,,,0.00,weatherlink.com 1.10,2013-09-20 20:45:00,
2013-09-20 16:00:00,68.0,53.0,29.90,WNW,283,0.0,15.0,60,0.00,,,0.00,weatherlink.com 1.10,2013-09-20 21:00:00,
2013-09-20 16:15:00,68.8,53.0,29.90,NW,324,0.0,16.0,57,0.00,,,0.00,weatherlink.com 1.10,2013-09-20 21:15:00,
2013-09-20 16:30:00,68.6,53.0,29.90,WNW,283,0.0,14.0,58,0.00,,,0.00,weatherlink.com 1.10,2013-09-20 21:30:00,
2013-09-20 16:45:00,68.7,53.0,29.91,NNW,328,5.0,14.0,58,0.00,,,0.00,weatherlink.com 1.10,2013-09-20 21:45:00,
2013-09-20 17:00:00,67.5,52.0,29.90,WNW,300,2.0,12.0,59,0.00,,,0.00,weatherlink.com 1.10,2013-09-20 22:00:00,
2013-09-20 17:15:00,67.2,53.0,29.90,WNW,291,0.0,9.0,61,0.00,,,0.00,weatherlink.com 1.10,2013-09-20 22:15:00,
2013-09-20 17:30:00,68.3,53.0,29.90,West,274,5.0,10.0,59,0.00,,,0.00,weatherlink.com 1.10,2013-09-20 22:30:00,
2013-09-20 17:45:00,67.6,52.0,29.90,WNW,287,5.0,10.0,58,0.00,,,0.00,weatherlink.com 1.10,2013-09-20 22:45:00,
2013-09-20 18:00:00,67.0,52.0,29.90,WNW,298,0.0,8.0,60,0.00,,,0.00,weatherlink.com 1.10,2013-09-20 23:00:00,
2013-09-20 18:15:00,66.3,52.0,29.90,West,281,6.0,10.0,60,0.00,,,0.00,weatherlink.com 1.10,2013-09-20 23:15:00,
2013-09-20 18:30:00,65.7,52.0,29.90,WNW,285,0.0,9.0,61,0.00,,,0.00,weatherlink.com 1.10,2013-09-20 23:30:00,
2013-09-20 18:45:00,65.2,52.0,29.90,West,279,0.0,6.0,62,0.00,,,0.00,weatherlink.com 1.10,2013-09-20 23:45:00,
2013-09-20 19:00:00,64.7,52.0,29.90,West,279,0.0,0.0,63,0.00,,,0.00,weatherlink.com 1.10,2013-09-21 00:00:00,
2013-09-20 19:15:00,63.9,53.0,29.90,West,278,0.0,0.0,67,0.00,,,0.00,weatherlink.com 1.10,2013-09-21 00:15:00,
2013-09-20 19:30:00,62.6,52.0,29.91,West,277,0.0,7.0,69,0.00,,,0.00,weatherlink.com 1.10,2013-09-21 00:30:00,
2013-09-20 19:45:00,61.5,52.0,29.91,West,278,0.0,0.0,71,0.00,,,0.00,weatherlink.com 1.10,2013-09-21 00:45:00,
2013-09-20 20:00:00,60.7,52.0,29.91,West,277,0.0,0.0,73,0.00,,,0.00,weatherlink.com 1.10,2013-09-21 01:00:00,
2013-09-20 20:15:00,59.8,52.0,29.92,West,277,0.0,0.0,75,0.00,,,0.00,weatherlink.com 1.10,2013-09-21 01:15:00,
2013-09-20 20:30:00,58.9,52.0,29.93,West,277,0.0,0.0,77,0.00,,,0.00,weatherlink.com 1.10,2013-09-21 01:30:00,
2013-09-20 20:45:00,58.2,51.0,29.93,West,278,0.0,1.0,78,0.00,,,0.00,weatherlink.com 1.10,2013-09-21 01:45:00,
2013-09-20 21:00:00,57.6,51.0,29.94,West,278,0.0,5.0,79,0.00,,,0.00,weatherlink.com 1.10,2013-09-21 02:00:00,
2013-09-20 21:15:00,57.2,50.0,29.93,West,278,3.0,5.0,78,0.00,,,0.00,weatherlink.com 1.10,2013-09-21 02:15:00,
2013-09-20 21:30:00,56.8,50.0,29.94,West,278,0.0,7.0,78,0.00,,,0.00,weatherlink.com 1.10,2013-09-21 02:30:00,
2013-09-20 21:45:00,56.4,50.0,29.95,West,278,0.0,0.0,79,0.00,,,0.00,weatherlink.com 1.10,2013-09-21 02:45:00,
2013-09-20 22:00:00,56.0,50.0,29.95,West,278,0.0,4.0,79,0.00,,,0.00,weatherlink.com 1.10,2013-09-21 03:00:00,
2013-09-20 22:15:00,55.5,49.0,29.95,West,278,0.0,0.0,80,0.00,,,0.00,weatherlink.com 1.10,2013-09-21 03:15:00,
2013-09-20 22:30:00,54.7,49.0,29.97,West,278,0.0,3.0,82,0.00,,,0.00,weatherlink.com 1.10,2013-09-21 03:30:00,
2013-09-20 22:45:00,54.2,49.0,29.97,North,355,0.0,12.0,83,0.00,,,0.00,weatherlink.com 1.10,2013-09-21 03:45:00,
2013-09-20 23:00:00,54.4,49.0,29.97,North,355,4.0,8.0,82,0.00,,,0.00,weatherlink.com 1.10,2013-09-21 04:00:00,
2013-09-20 23:15:00,54.3,48.0,29.96,North,355,0.0,3.0,80,0.00,,,0.00,weatherlink.com 1.10,2013-09-21 04:15:00,
2013-09-20 23:30:00,54.0,48.0,29.97,North,355,0.0,0.0,80,0.00,,,0.00,weatherlink.com 1.10,2013-09-21 04:30:00,
2013-09-20 23:45:00,53.6,48.0,29.96,North,355,0.0,4.0,81,0.00,,,0.00,weatherlink.com 1.10,2013-09-21 04:45:00,